{"data":{"norad_id":28868,"epoch":"2026-09-18T23:21:16.613280Z","epoch_age_seconds":146263,"freshness":"FRESH","line1":"1 28868U 05036A   26261.97310895 -.00000079  00000+0  00000+0 0  9990","line2":"2 28868   4.5464  75.3601 0002627  63.5174 102.0499  1.00272966 47393","mean_motion":1.00272966,"eccentricity":0.0002627,"inclination_deg":4.5464,"raan_deg":75.3601,"arg_perigee_deg":63.5174,"mean_anomaly_deg":102.0499,"bstar":0,"rev_number":4739,"period_min":1436.0799898948,"perigee_km":35775.187299156,"apogee_km":35797.340475382,"semimajor_km":42164.400887269,"source":"CELESTRAK","updated_at":"2026-09-20T09:00:35.125191Z"}}